DELTA 1 DEB

Satellite information

Favourite Embed

Satellite Type and Status

DEBRISIN ORBIT

Key statistics

Satellite DELTA 1 DEB at a glance.

Uptime

17291

Days in orbit

Revolutions

≈ 14.2

Per day

Orbit

SSO

Sun Synchronous Orbit

Inclination

99.0

Latest

Satellite identification and parameters

Extended collection of information and parameters for DELTA 1 DEB.

Object identification

Identified? True

Debris? True

Object name: DELTA 1 DEB

International designator: 1978-026BJ

Object number (NORAD): 12217

Object ID (CCSDS): 12217

Country: UNITED STATES OF AMERICA (US)

Current information (Y/N): Y

RCS size: SMALL

Orbital parameters

Period: 101.15 minutes

Inclination: 98.9622 deg

SMA: 7191.264 km

Apoapsis: 828.865 km

Periapsis: 797.393 km

RAAN: 201.4899 deg

Eccentricy: 0.0021882

Argument of periapsis: 61.9668 deg

Mean anomaly: 62.599 deg

Mean motion: 14.2362265 rev/day

Mean motion (dot): 0.0000056 rev/day2

B* drag term: 0.00026525 1/REarth

Two-line elements (TLE)

Creation date: July 6, 2025, 6:05 p.m.

Reference frame: TEME

Reference center: EARTH

Epoch: July 6, 2025, 2:16 p.m. UTC

TLE line 0: 0 DELTA 1 DEB

TLE line 1: 1 12217U 78026BJ 25187.59469634 .00000560 00000-0 26525-3 0 9999

TLE line 2: 2 12217 98.9622 201.4899 0021882 61.9668 62.5990 14.23622650291218

Live tracking on map

Real-time ground track for satellite DELTA 1 DEB.

In-orbit conjunctions

A list of the most updated potential collisions computed for object DELTA 1 DEB.

Target Orbit TCA Probability of collision Miss distance Type
FENGYUN 1C DEB SSO 2025-05-24 08:40:14 0.0001104509 605.0 (m) DEBRIS
COSMOS 1275 DEB LEO 2025-01-27 09:05:44 0.000126392 120.0 (m) DEBRIS

Associated space launch

Earth observation satellite

DELTA 1 DEB was lifted into orbit during the mission ‘Delta 2910 | Landsat 3’, on board a Delta 2910 space rocket.

The launch took place on March 5, 1978, 5:54 p.m. from Space Launch Complex 2W.

For more information about the launch, click the button.

Launch to space Delta 2910 | Landsat 3
Delta 2910 | Landsat 3

Agency: N/A

Status: Launch Successful

Launch date: March 5, 1978, 5:54 p.m. UTC

Rocket: Delta 2910

Launch pad: Space Launch Complex 2W

Location: Vandenberg SFB, CA, USA

...

Latest news about this satellite

There are no fresh news available about this satellite. Check back as we update our databases every day.


Newsletter sign-up

Weekly statistics, charts and insights to help you stay on top of the space industry.